| time (UTC) | temp F | wind direction | speed knots | gust knots | rain 1hr in | rain 24hr in | rain mn in | humidity % | barometer mb |
| 20260502224513 | 71 | 200 | 7.8 | 15.6 | 0.00 | 0.00 | 0.00 | 28 | 1004.7 |
| 20260502224013 | 71 | 211 | 8.7 | 16.5 | 0.00 | 0.00 | 0.00 | 28 | 1004.8 |
| 20260502223512 | 70 | 196 | 4.3 | 16.5 | 0.00 | 0.00 | 0.00 | 29 | 1004.9 |
| 20260502223010 | 70 | 193 | 3.5 | 16.5 | 0.00 | 0.00 | 0.00 | 29 | 1005.0 |
| 20260502222510 | 70 | 205 | 9.6 | 16.5 | 0.00 | 0.00 | 0.00 | 28 | 1005.1 |
| 20260502222010 | 70 | 213 | 6.1 | 18.2 | 0.00 | 0.00 | 0.00 | 28 | 1005.2 |
| 20260502221510 | 70 | 202 | 8.7 | 18.2 | 0.00 | 0.00 | 0.00 | 28 | 1005.4 |
| 20260502221008 | 70 | 221 | 6.1 | 15.6 | 0.00 | 0.00 | 0.00 | 28 | 1005.6 |
| 20260502220507 | 70 | 216 | 7.0 | 14.8 | 0.00 | 0.00 | 0.00 | 27 | 1005.6 |
| 20260502220012 | 70 | 198 | 7.0 | 13.9 | 0.00 | 0.00 | 0.00 | 28 | 1005.8 |
| 20260502215507 | 69 | 219 | 6.1 | 16.5 | 0.00 | 0.00 | 0.00 | 29 | 1005.8 |
| 20260502215004 | 69 | 202 | 7.0 | 16.5 | 0.00 | 0.00 | 0.00 | 29 | 1006.0 |
| 20260502214504 | 69 | 217 | 6.1 | 12.2 | 0.00 | 0.00 | 0.00 | 29 | 1006.1 |
| 20260502214003 | 68 | 219 | 5.2 | 13.0 | 0.00 | 0.00 | 0.00 | 29 | 1006.2 |
| 20260502213503 | 69 | 196 | 5.2 | 13.0 | 0.00 | 0.00 | 0.00 | 30 | 1006.4 |
| 20260502213004 | 68 | 176 | 3.5 | 10.4 | 0.00 | 0.00 | 0.00 | 31 | 1006.5 |
| 20260502212501 | 68 | 190 | 6.1 | 10.4 | 0.00 | 0.00 | 0.00 | 30 | 1006.6 |
| 20260502212001 | 67 | 208 | 5.2 | 13.9 | 0.00 | 0.00 | 0.00 | 32 | 1006.7 |
| 20260502211600 | 67 | 214 | 6.1 | 14.8 | 0.00 | 0.00 | 0.00 | 31 | 1006.9 |
| 20260502211059 | 68 | 168 | 7.0 | 14.8 | 0.00 | 0.00 | 0.00 | 31 | 1006.9 |
| 20260502210559 | 68 | 192 | 4.3 | 8.7 | 0.00 | 0.00 | 0.00 | 31 | 1007.1 |
| 20260502210058 | 67 | 271 | 3.5 | 8.7 | 0.00 | 0.00 | 0.00 | 31 | 1007.2 |
| 20260502205558 | 67 | 300 | 4.3 | 10.4 | 0.00 | 0.00 | 0.00 | 31 | 1007.5 |
| 20260502205056 | 67 | 194 | 3.5 | 10.4 | 0.00 | 0.00 | 0.00 | 31 | 1007.6 |
| 20260502204602 | 67 | 246 | 3.5 | 13.9 | 0.00 | 0.00 | 0.00 | 31 | 1007.8 |
| 20260502204055 | 67 | 248 | 4.3 | 13.9 | 0.00 | 0.00 | 0.00 | 31 | 1007.6 |
| 20260502203554 | 67 | 242 | 2.6 | 9.6 | 0.00 | 0.00 | 0.00 | 31 | 1007.8 |
| 20260502203118 | 67 | 169 | 4.3 | 10.4 | 0.00 | 0.00 | 0.00 | 32 | 1008.1 |
| 20260502202553 | 67 | 182 | 2.6 | 9.6 | 0.00 | 0.00 | 0.00 | 32 | 1008.3 |
| 20260502202056 | 66 | 178 | 2.6 | 9.6 | 0.00 | 0.00 | 0.00 | 32 | 1008.4 |
| 20260502201603 | 66 | 22 | 3.5 | 13.0 | 0.00 | 0.00 | 0.00 | 33 | 1008.6 |
| 20260502201054 | 66 | 355 | 0.0 | 20.9 | 0.00 | 0.00 | 0.00 | 33 | 1008.7 |
| 20260502200551 | 66 | 281 | 7.8 | 20.9 | 0.00 | 0.00 | 0.00 | 32 | 1009.3 |
| 20260502200059 | 67 | 269 | 3.5 | 10.4 | 0.00 | 0.00 | 0.00 | 29 | 1008.9 |
| 20260502195550 | 67 | 240 | 4.3 | 14.8 | 0.00 | 0.00 | 0.00 | 30 | 1008.8 |
| 20260502195050 | 67 | 278 | 7.8 | 17.4 | 0.00 | 0.00 | 0.00 | 32 | 1008.8 |
| 20260502194555 | 67 | 275 | 4.3 | 17.4 | 0.00 | 0.00 | 0.00 | 32 | 1008.9 |
| 20260502194051 | 68 | 286 | 7.8 | 17.4 | 0.00 | 0.00 | 0.00 | 32 | 1009.1 |
| 20260502193551 | 68 | 253 | 4.3 | 16.5 | 0.00 | 0.00 | 0.00 | 30 | 1009.1 |
| 20260502193100 | 68 | 292 | 7.0 | 16.5 | 0.00 | 0.00 | 0.00 | 29 | 1009.1 |
| 20260502192549 | 69 | 244 | 7.0 | 13.9 | 0.00 | 0.00 | 0.00 | 29 | 1009.1 |
| 20260502192047 | 69 | 250 | 7.0 | 18.2 | 0.00 | 0.00 | 0.00 | 29 | 1009.1 |
| 20260502191550 | 70 | 221 | 5.2 | 18.2 | 0.00 | 0.00 | 0.00 | 29 | 1009.1 |
| 20260502191048 | 70 | 286 | 3.5 | 17.4 | 0.00 | 0.00 | 0.00 | 29 | 1009.0 |
| 20260502190547 | 70 | 268 | 5.2 | 17.4 | 0.00 | 0.00 | 0.00 | 29 | 1009.2 |
| 20260502190048 | 69 | 200 | 4.3 | 18.2 | 0.00 | 0.00 | 0.00 | 29 | 1009.1 |
| 20260502185546 | 69 | 329 | 5.2 | 21.7 | 0.00 | 0.00 | 0.00 | 29 | 1009.1 |
| 20260502185045 | 69 | 273 | 7.0 | 21.7 | 0.00 | 0.00 | 0.00 | 29 | 1009.3 |
| 20260502184554 | 69 | 269 | 4.3 | 13.0 | 0.00 | 0.00 | 0.00 | 30 | 1009.3 |
| 20260502184045 | 69 | 84 | 4.3 | 17.4 | 0.00 | 0.00 | 0.00 | 29 | 1009.3 |
| 20260502183545 | 69 | 287 | 7.0 | 17.4 | 0.00 | 0.00 | 0.00 | 30 | 1009.2 |
| 20260502183044 | 70 | 209 | 6.1 | 18.2 | 0.00 | 0.00 | 0.00 | 29 | 1009.3 |
| 20260502182541 | 70 | 259 | 8.7 | 18.2 | 0.00 | 0.00 | 0.00 | 30 | 1009.4 |
| 20260502182041 | 70 | 283 | 5.2 | 13.9 | 0.00 | 0.00 | 0.00 | 30 | 1009.6 |
| 20260502181544 | 70 | 271 | 5.2 | 12.2 | 0.00 | 0.00 | 0.00 | 30 | 1009.5 |
| 20260502181041 | 70 | 212 | 5.2 | 16.5 | 0.00 | 0.00 | 0.00 | 30 | 1009.7 |
| 20260502180540 | 69 | 282 | 4.3 | 16.5 | 0.00 | 0.00 | 0.00 | 31 | 1009.6 |
| 20260502164023 | 67 | 238 | 4.3 | 10.4 | 0.00 | 0.00 | 0.00 | 39 | 1011.0 |
| 20260502163522 | 67 | 289 | 4.3 | 10.4 | 0.00 | 0.00 | 0.00 | 41 | 1011.1 |
| 20260502163021 | 66 | 266 | 1.7 | 9.6 | 0.00 | 0.00 | 0.00 | 44 | 1011.1 |
| 20260502162519 | 65 | 198 | 3.5 | 8.7 | 0.00 | 0.00 | 0.00 | 44 | 1011.2 |
| 20260502162016 | 64 | 218 | 0.9 | 10.4 | 0.00 | 0.00 | 0.00 | 45 | 1011.3 |
| 20260502161515 | 63 | 271 | 2.6 | 10.4 | 0.00 | 0.00 | 0.00 | 46 | 1011.5 |
| 20260502161014 | 62 | 269 | 1.7 | 8.7 | 0.00 | 0.00 | 0.00 | 47 | 1011.5 |
| 20260502160513 | 61 | 246 | 1.7 | 10.4 | 0.00 | 0.00 | 0.00 | 47 | 1011.6 |
| 20260502152102 | 57 | 301 | 1.7 | 10.4 | 0.00 | 0.00 | 0.00 | 51 | 1012.4 |
| 20260502151613 | 56 | 181 | 6.1 | 13.0 | 0.00 | 0.00 | 0.00 | 51 | 1012.5 |
| 20260502151057 | 56 | 210 | 3.5 | 13.0 | 0.00 | 0.00 | 0.00 | 53 | 1012.5 |
| 20260502150556 | 55 | 169 | 2.6 | 10.4 | 0.00 | 0.00 | 0.00 | 52 | 1012.6 |
| 20260502130524 | 44 | 188 | 5.2 | 12.2 | 0.00 | 0.00 | 0.00 | 66 | 1014.1 |
| 20260502123518 | 38 | 181 | 1.7 | 4.3 | 0.00 | 0.00 | 0.00 | 77 | 1014.5 |
| 20260502123017 | 38 | 178 | 0.9 | 2.6 | 0.00 | 0.00 | 0.00 | 77 | 1014.5 |
| 20260502122515 | 37 | 179 | 0.9 | 4.3 | 0.00 | 0.00 | 0.00 | 77 | 1014.6 |
| 20260502122019 | 37 | 180 | 1.7 | 4.3 | 0.00 | 0.00 | 0.00 | 77 | 1014.8 |
| 20260502121515 | 37 | 176 | 1.7 | 4.3 | 0.00 | 0.00 | 0.00 | 77 | 1014.6 |
| 20260502121014 | 36 | 170 | 0.9 | 4.3 | 0.00 | 0.00 | 0.00 | 77 | 1014.6 |
| 20260502120518 | 36 | 165 | 1.7 | 5.2 | 0.00 | 0.00 | 0.00 | 77 | 1014.7 |
| 20260502115515 | 36 | 163 | 3.5 | 6.1 | 0.00 | 0.00 | 0.00 | 77 | 1014.7 |
| 20260502115011 | 35 | 180 | 2.6 | 5.2 | 0.00 | 0.00 | 0.00 | 78 | 1014.9 |
| 20260502114509 | 35 | 173 | 2.6 | 5.2 | 0.00 | 0.00 | 0.00 | 78 | 1014.9 |
| 20260502114012 | 35 | 160 | 2.6 | 6.1 | 0.00 | 0.00 | 0.00 | 78 | 1014.7 |
| 20260502113508 | 35 | 178 | 1.7 | 4.3 | 0.00 | 0.00 | 0.00 | 78 | 1015.0 |
| 20260502113007 | 35 | 177 | 1.7 | 4.3 | 0.00 | 0.00 | 0.00 | 78 | 1014.9 |
| 20260502112505 | 34 | 168 | 3.5 | 6.1 | 0.00 | 0.00 | 0.00 | 78 | 1014.9 |
| 20260502112005 | 34 | 168 | 2.6 | 6.1 | 0.00 | 0.00 | 0.00 | 78 | 1014.9 |
| 20260502111503 | 34 | 168 | 0.9 | 4.3 | 0.00 | 0.00 | 0.00 | 77 | 1014.9 |
| 20260502111003 | 34 | 169 | 1.7 | 6.1 | 0.00 | 0.00 | 0.00 | 77 | 1015.0 |
| 20260502110501 | 34 | 161 | 3.5 | 6.1 | 0.00 | 0.00 | 0.00 | 77 | 1015.1 |
| 20260502110100 | 34 | 165 | 3.5 | 6.1 | 0.00 | 0.00 | 0.00 | 77 | 1015.1 |
| 20260502105559 | 35 | 158 | 1.7 | 5.2 | 0.00 | 0.00 | 0.00 | 77 | 1015.1 |
| 20260502105058 | 35 | 160 | 0.9 | 5.2 | 0.00 | 0.00 | 0.00 | 76 | 1015.2 |
| 20260502104608 | 35 | 175 | 1.7 | 3.5 | 0.00 | 0.00 | 0.00 | 76 | 1015.3 |
| 20260502104056 | 35 | 175 | 1.7 | 3.5 | 0.00 | 0.00 | 0.00 | 76 | 1015.3 |
| 20260502103556 | 35 | 175 | 0.9 | 2.6 | 0.00 | 0.00 | 0.00 | 76 | 1015.3 |
| 20260502103056 | 35 | 175 | 0.9 | 4.3 | 0.00 | 0.00 | 0.00 | 76 | 1015.4 |
| 20260502102557 | 35 | 175 | 0.9 | 4.3 | 0.00 | 0.00 | 0.00 | 75 | 1015.4 |
| 20260502102053 | 35 | 168 | 3.5 | 5.2 | 0.00 | 0.00 | 0.00 | 75 | 1015.4 |
| 20260502101607 | 35 | 163 | 1.7 | 5.2 | 0.00 | 0.00 | 0.00 | 75 | 1015.6 |
| 20260502101051 | 35 | 163 | 0.9 | 4.3 | 0.00 | 0.00 | 0.00 | 75 | 1015.7 |
| 20260502100551 | 34 | 163 | 0.9 | 4.3 | 0.00 | 0.00 | 0.00 | 75 | 1015.8 |
| 20260502091045 | 35 | 165 | 0.9 | 1.7 | 0.00 | 0.00 | 0.00 | 72 | 1016.3 |
| 20260502090546 | 35 | 165 | 0.9 | 4.3 | 0.00 | 0.00 | 0.00 | 72 | 1016.3 |
| 20260502071524 | 37 | 164 | 1.7 | 3.5 | 0.00 | 0.00 | 0.00 | 63 | 1017.1 |
| 20260502071023 | 37 | 164 | 0.0 | 2.6 | 0.00 | 0.00 | 0.00 | 63 | 1017.2 |
| 20260502070522 | 37 | 164 | 0.0 | 2.6 | 0.00 | 0.00 | 0.00 | 63 | 1017.3 |
| 20260502070037 | 37 | 164 | 0.9 | 4.3 | 0.00 | 0.00 | 0.00 | 62 | 1017.2 |
| 20260502065521 | 38 | 164 | 0.0 | 4.3 | 0.00 | 0.00 | 0.00 | 61 | 1017.3 |
| 20260502065022 | 38 | 164 | 1.7 | 4.3 | 0.00 | 0.00 | 0.00 | 60 | 1017.4 |
| 20260502064519 | 38 | 164 | 1.7 | 4.3 | 0.00 | 0.00 | 0.00 | 60 | 1017.5 |
| 20260502064018 | 38 | 161 | 0.9 | 4.3 | 0.00 | 0.00 | 0.00 | 59 | 1017.5 |
| 20260502063520 | 38 | 161 | 2.6 | 4.3 | 0.00 | 0.00 | 0.00 | 59 | 1017.5 |
| 20260502063021 | 38 | 161 | 1.7 | 3.5 | 0.00 | 0.00 | 0.00 | 59 | 1017.6 |
| 20260502062516 | 38 | 161 | 1.7 | 3.5 | 0.00 | 0.00 | 0.00 | 59 | 1017.6 |
| 20260502062014 | 38 | 161 | 0.9 | 2.6 | 0.00 | 0.00 | 0.00 | 58 | 1017.5 |
| 20260502061516 | 38 | 161 | 0.0 | 2.6 | 0.00 | 0.00 | 0.00 | 58 | 1017.6 |
| 20260502061012 | 39 | 161 | 0.0 | 2.6 | 0.00 | 0.00 | 0.00 | 57 | 1017.5 |
| 20260502060512 | 39 | 161 | 0.9 | 2.6 | 0.00 | 0.00 | 0.00 | 57 | 1017.6 |
| 20260502060025 | 39 | 161 | 0.9 | 3.5 | 0.00 | 0.00 | 0.00 | 57 | 1017.6 |
| 20260502055511 | 39 | 161 | 0.0 | 2.6 | 0.00 | 0.00 | 0.00 | 57 | 1017.6 |
| 20260502055011 | 39 | 161 | 0.9 | 1.7 | 0.00 | 0.00 | 0.00 | 57 | 1017.6 |
| 20260502054507 | 40 | 161 | 0.0 | 1.7 | 0.00 | 0.00 | 0.00 | 57 | 1017.6 |
| 20260502054006 | 40 | 161 | 0.0 | 1.7 | 0.00 | 0.00 | 0.00 | 56 | 1017.6 |
| 20260502053505 | 40 | 161 | 0.0 | 0.9 | 0.00 | 0.00 | 0.00 | 56 | 1017.6 |
| 20260502053005 | 40 | 161 | 0.0 | 2.6 | 0.00 | 0.00 | 0.00 | 56 | 1017.6 |
| 20260502052509 | 41 | 161 | 0.0 | 4.3 | 0.00 | 0.00 | 0.00 | 55 | 1017.7 |
| 20260502052003 | 41 | 161 | 1.7 | 4.3 | 0.00 | 0.00 | 0.00 | 55 | 1017.7 |
| 20260502051502 | 41 | 159 | 0.0 | 1.7 | 0.00 | 0.00 | 0.00 | 56 | 1017.6 |
| 20260502051003 | 41 | 159 | 0.0 | 2.6 | 0.00 | 0.00 | 0.00 | 55 | 1017.7 |
| 20260502050501 | 41 | 159 | 0.9 | 2.6 | 0.00 | 0.00 | 0.00 | 55 | 1017.7 |
| 20260502050104 | 41 | 159 | 0.9 | 2.6 | 0.00 | 0.00 | 0.00 | 56 | 1017.7 |
| 20260502045601 | 41 | 159 | 0.0 | 1.7 | 0.00 | 0.00 | 0.00 | 56 | 1017.8 |
| 20260502045058 | 41 | 159 | 0.0 | 1.7 | 0.00 | 0.00 | 0.00 | 56 | 1017.7 |
| 20260502044558 | 42 | 159 | 0.0 | 2.6 | 0.00 | 0.00 | 0.00 | 55 | 1017.8 |
| 20260502044058 | 42 | 159 | 0.0 | 2.6 | 0.00 | 0.00 | 0.00 | 54 | 1017.7 |
| 20260502043558 | 42 | 159 | 0.0 | 5.2 | 0.00 | 0.00 | 0.00 | 54 | 1017.9 |
| 20260502043112 | 42 | 160 | 1.7 | 5.2 | 0.00 | 0.00 | 0.00 | 55 | 1017.9 |
| 20260502042600 | 42 | 143 | 0.0 | 1.7 | 0.00 | 0.00 | 0.00 | 55 | 1017.9 |
| 20260502042058 | 42 | 143 | 0.0 | 1.7 | 0.00 | 0.00 | 0.00 | 54 | 1017.9 |
| 20260502041624 | 42 | 143 | 0.0 | 2.6 | 0.00 | 0.00 | 0.00 | 54 | 1017.9 |
| 20260502041059 | 43 | 143 | 0.9 | 2.6 | 0.00 | 0.00 | 0.00 | 53 | 1018.0 |
| 20260502040556 | 43 | 143 | 0.9 | 2.6 | 0.00 | 0.00 | 0.00 | 53 | 1018.1 |
| 20260502040100 | 43 | 143 | 1.7 | 2.6 | 0.00 | 0.00 | 0.00 | 52 | 1017.9 |
| 20260502035557 | 44 | 143 | 0.0 | 3.5 | 0.00 | 0.00 | 0.00 | 51 | 1018.0 |
| 20260502035057 | 44 | 143 | 1.7 | 3.5 | 0.00 | 0.00 | 0.00 | 50 | 1018.1 |
| 20260502034557 | 45 | 97 | 0.0 | 2.6 | 0.00 | 0.00 | 0.00 | 50 | 1018.1 |
| 20260502034057 | 45 | 81 | 0.9 | 2.6 | 0.00 | 0.00 | 0.00 | 49 | 1018.1 |
| 20260502033556 | 46 | 68 | 0.0 | 1.7 | 0.00 | 0.00 | 0.00 | 47 | 1018.1 |
| 20260502033056 | 46 | 68 | 0.9 | 1.7 | 0.00 | 0.00 | 0.00 | 47 | 1018.1 |
| 20260502032556 | 47 | 68 | 0.0 | 0.0 | 0.00 | 0.00 | 0.00 | 45 | 1018.0 |
| 20260502032055 | 47 | 68 | 0.0 | 0.0 | 0.00 | 0.00 | 0.00 | 44 | 1018.1 |
| 20260502031555 | 48 | 67 | 0.0 | 1.7 | 0.00 | 0.00 | 0.00 | 43 | 1018.1 |
| 20260502031055 | 48 | 66 | 0.0 | 2.6 | 0.00 | 0.00 | 0.00 | 43 | 1018.1 |
| 20260502030554 | 49 | 66 | 0.9 | 2.6 | 0.00 | 0.00 | 0.00 | 42 | 1018.1 |
| 20260502030116 | 49 | 61 | 0.9 | 2.6 | 0.00 | 0.00 | 0.00 | 41 | 1018.1 |
| 20260502025554 | 49 | 61 | 0.9 | 2.6 | 0.00 | 0.00 | 0.00 | 41 | 1018.1 |
| 20260502025054 | 49 | 61 | 0.9 | 2.6 | 0.00 | 0.00 | 0.00 | 41 | 1018.1 |
| 20260502024604 | 49 | 61 | 0.9 | 2.6 | 0.00 | 0.00 | 0.00 | 41 | 1018.1 |
| 20260502024054 | 49 | 61 | 0.0 | 1.7 | 0.00 | 0.00 | 0.00 | 40 | 1018.1 |
| 20260502023555 | 50 | 61 | 0.0 | 1.7 | 0.00 | 0.00 | 0.00 | 40 | 1018.1 |
| 20260502023127 | 50 | 61 | 0.0 | 0.9 | 0.00 | 0.00 | 0.00 | 40 | 1018.1 |
| 20260502022557 | 50 | 62 | 0.0 | 1.7 | 0.00 | 0.00 | 0.00 | 39 | 1018.1 |
| 20260502022054 | 51 | 62 | 0.0 | 1.7 | 0.00 | 0.00 | 0.00 | 39 | 1018.1 |
| 20260502021553 | 51 | 62 | 0.0 | 2.6 | 0.00 | 0.00 | 0.00 | 39 | 1018.0 |
| 20260502021054 | 51 | 62 | 0.9 | 2.6 | 0.00 | 0.00 | 0.00 | 38 | 1018.0 |
| 20260502020553 | 51 | 33 | 0.9 | 3.5 | 0.00 | 0.00 | 0.00 | 38 | 1017.9 |
| 20260502020057 | 51 | 29 | 0.9 | 3.5 | 0.00 | 0.00 | 0.00 | 37 | 1018.0 |
| 20260502015556 | 52 | 26 | 0.9 | 4.3 | 0.00 | 0.00 | 0.00 | 37 | 1018.1 |
| 20260502015053 | 52 | 26 | 1.7 | 5.2 | 0.00 | 0.00 | 0.00 | 37 | 1018.1 |
| 20260502014604 | 52 | 27 | 2.6 | 5.2 | 0.00 | 0.00 | 0.00 | 36 | 1018.0 |
| 20260502014052 | 52 | 335 | 0.9 | 2.6 | 0.00 | 0.00 | 0.00 | 36 | 1018.0 |
| 20260502013552 | 53 | 333 | 1.7 | 3.5 | 0.00 | 0.00 | 0.00 | 35 | 1018.0 |
| 20260502013100 | 53 | 331 | 1.7 | 3.5 | 0.00 | 0.00 | 0.00 | 35 | 1018.0 |
| 20260502012552 | 53 | 317 | 1.7 | 3.5 | 0.00 | 0.00 | 0.00 | 35 | 1018.0 |
| 20260502012052 | 53 | 12 | 1.7 | 3.5 | 0.00 | 0.00 | 0.00 | 34 | 1018.0 |
| 20260502011605 | 53 | 13 | 0.9 | 3.5 | 0.00 | 0.00 | 0.00 | 34 | 1017.9 |
| 20260502011051 | 53 | 330 | 0.9 | 5.2 | 0.00 | 0.00 | 0.00 | 34 | 1017.9 |
| 20260502010551 | 54 | 338 | 1.7 | 5.2 | 0.00 | 0.00 | 0.00 | 34 | 1017.8 |
| 20260502010051 | 54 | 318 | 0.9 | 7.8 | 0.00 | 0.00 | 0.00 | 34 | 1017.8 |
| 20260502005551 | 54 | 346 | 2.6 | 8.7 | 0.00 | 0.00 | 0.00 | 34 | 1017.9 |
| 20260502005051 | 54 | 287 | 2.6 | 8.7 | 0.00 | 0.00 | 0.00 | 34 | 1017.8 |
| 20260502004551 | 54 | 284 | 2.6 | 8.7 | 0.00 | 0.00 | 0.00 | 33 | 1017.8 |
| 20260502004051 | 54 | 319 | 5.2 | 8.7 | 0.00 | 0.00 | 0.00 | 33 | 1017.9 |
| 20260502003550 | 55 | 347 | 2.6 | 8.7 | 0.00 | 0.00 | 0.00 | 33 | 1017.8 |
| 20260502003050 | 55 | 340 | 2.6 | 8.7 | 0.00 | 0.00 | 0.00 | 33 | 1017.8 |
| 20260502002550 | 55 | 254 | 2.6 | 7.8 | 0.00 | 0.00 | 0.00 | 32 | 1017.8 |
| 20260502002050 | 55 | 300 | 1.7 | 7.0 | 0.00 | 0.00 | 0.00 | 33 | 1017.8 |
| 20260502001558 | 56 | 302 | 1.7 | 7.0 | 0.00 | 0.00 | 0.00 | 34 | 1017.9 |
| 20260502001049 | 56 | 306 | 0.9 | 7.8 | 0.00 | 0.00 | 0.00 | 34 | 1017.9 |
| 20260502000549 | 56 | 325 | 4.3 | 9.6 | 0.00 | 0.00 | 0.00 | 33 | 1017.9 |
| 20260502000100 | 56 | 277 | 5.2 | 8.7 | 0.00 | 0.00 | 0.00 | 33 | 1017.9 |
| 20260501235550 | 55 | 331 | 1.7 | 7.8 | 0.00 | 0.00 | 0.00 | 32 | 1017.9 |
| 20260501235048 | 56 | 298 | 4.3 | 8.7 | 0.00 | 0.00 | 0.00 | 33 | 1018.1 |
| 20260501234548 | 56 | 242 | 2.6 | 8.7 | 0.00 | 0.00 | 0.00 | 34 | 1018.2 |
| 20260501234048 | 56 | 325 | 3.5 | 7.8 | 0.00 | 0.00 | 0.00 | 34 | 1018.2 |
| 20260501233548 | 56 | 331 | 0.9 | 7.8 | 0.00 | 0.00 | 0.00 | 34 | 1018.2 |
| 20260501233102 | 55 | 355 | 1.7 | 7.8 | 0.00 | 0.00 | 0.00 | 34 | 1018.2 |
| 20260501232546 | 55 | 283 | 5.2 | 8.7 | 0.00 | 0.00 | 0.00 | 34 | 1018.1 |
| 20260501232046 | 55 | 282 | 5.2 | 8.7 | 0.00 | 0.00 | 0.00 | 34 | 1018.1 |
| 20260501231600 | 55 | 277 | 3.5 | 7.0 | 0.00 | 0.00 | 0.00 | 35 | 1018.1 |
| 20260501231045 | 55 | 264 | 3.5 | 8.7 | 0.00 | 0.00 | 0.00 | 35 | 1018.1 |
| 20260501230545 | 55 | 312 | 3.5 | 13.9 | 0.00 | 0.00 | 0.00 | 35 | 1018.2 |
| 20260501230113 | 56 | 270 | 6.1 | 13.9 | 0.00 | 0.00 | 0.00 | 34 | 1018.2 |
| 20260501225546 | 56 | 336 | 5.2 | 8.7 | 0.00 | 0.00 | 0.00 | 34 | 1018.3 |
| 20260501225045 | 55 | 263 | 1.7 | 7.0 | 0.00 | 0.00 | 0.00 | 37 | 1018.2 |